Weather History for Provo, UT

Change the Weather History Date:

Thursday, February 13, 2014

  Actual Average Record
Temperature  
Mean Temperature 43 °F -  
Max Temperature 51 °F 39 °F 52 °F (1987)
Min Temperature 35 °F 24 °F 0 °F (2004)
Degree Days  
Heating Degree Days 22    
Moisture  
Dew Point 35 °F    
Average Humidity 84    
Maximum Humidity 100    
Minimum Humidity 54    
Precipitation  
Precipitation 0.01 in - - ()
Sea Level Pressure  
Sea Level Pressure 30.10 in    
Wind  
Wind Speed 4 mph (NW)    
Max Wind Speed 12 mph    
Max Gust Speed -    
Visibility 11 miles    
Events Rain    
Averages and records for this station are not official NWS values.
T = Trace of Precipitation, MM = Missing Value Source: NWS Daily Summary

Daily Weather History Graph

Daily Weather History Graph

Search for Another Location

Airport:

Trip Planner

Search our weather history database for the weather conditions in past years. The results will help you decide how hot, cold, wet, or windy it might be!

Date:

Astronomy

Feb. 13, 2014 Rise Set
Actual Time 7:22 AM MST 6:00 PM MST
Civil Twilight 6:54 AM MST 6:28 PM MST
Nautical Twilight 6:22 AM MST 7:00 PM MST
Astronomical Twilight 5:51 AM MST 7:31 PM MST
Moon 5:11 PM MST (2/13) 6:17 AM MST (2/13)
Length of Visible Light 11h 33m
Length of Day
10h 37m
Waxing Gibbous, 99% of the Moon is Illuminated
Feb 13
Waxing Gibbous
Feb 14
Full
Feb 22
Last Quarter
Mar 1
New
Mar 8
First Quarter

Hourly Weather History & Observations

Time (MST) Temp. Windchill Dew Point Humidity Pressure Visibility Wind Dir Wind Speed Gust Speed Precip Events Conditions
12:15 AM 37.4 °F - 33.8 °F 87% 30.11 in 10.0 mi Calm Calm - N/A   Overcast
12:35 AM 37.4 °F - 33.8 °F 87% 30.13 in 10.0 mi Calm Calm - N/A   Overcast
12:55 AM 37.4 °F 32.1 °F 33.8 °F 87% 30.13 in 10.0 mi South 6.9 mph - N/A   Overcast
1:15 AM 37.4 °F 29.8 °F 33.8 °F 87% 30.12 in 10.0 mi East 11.5 mph - N/A   Overcast
1:35 AM 37.4 °F - 35.6 °F 93% 30.11 in 10.0 mi Calm Calm - N/A   Overcast
1:55 AM 37.4 °F 33.8 °F 33.8 °F 87% 30.11 in 10.0 mi WSW 4.6 mph - N/A   Overcast
2:15 AM 35.6 °F 31.7 °F 33.8 °F 93% 30.11 in 10.0 mi South 4.6 mph - N/A   Mostly Cloudy
2:35 AM 35.6 °F 31.7 °F 33.8 °F 93% 30.11 in 10.0 mi NE 4.6 mph - N/A   Overcast
2:55 AM 35.6 °F 30.7 °F 35.6 °F 100% 30.10 in 10.0 mi NNE 5.8 mph - N/A   Scattered Clouds
3:15 AM 35.6 °F 32.8 °F 33.8 °F 93% 30.11 in 10.0 mi NW 3.5 mph - N/A   Mostly Cloudy
3:35 AM 35.6 °F 31.7 °F 32.0 °F 87% 30.11 in 9.0 mi West 4.6 mph - N/A   Overcast
3:55 AM 35.6 °F 30.7 °F 32.0 °F 87% 30.11 in 10.0 mi West 5.8 mph - N/A   Overcast
4:15 AM 35.6 °F - 32.0 °F 87% 30.11 in 9.0 mi Calm Calm - N/A   Overcast
4:35 AM 35.6 °F 28.6 °F 33.8 °F 93% 30.11 in 8.0 mi East 9.2 mph - N/A   Overcast
4:55 AM 37.4 °F 32.1 °F 35.6 °F 93% 30.10 in 10.0 mi East 6.9 mph - N/A   Overcast
5:15 AM 39.2 °F - 35.6 °F 87% 30.10 in 10.0 mi Calm Calm - N/A   Overcast
5:35 AM 39.2 °F 33.6 °F 33.8 °F 81% 30.10 in 10.0 mi WNW 8.1 mph - N/A   Overcast
5:55 AM 37.4 °F - 33.8 °F 87% 30.08 in 10.0 mi Calm Calm - N/A   Overcast
6:15 AM 37.4 °F 32.1 °F 33.8 °F 87% 30.09 in 10.0 mi WNW 6.9 mph - N/A   Overcast
6:35 AM 35.6 °F 31.7 °F 30.2 °F 81% 30.09 in 10.0 mi NNW 4.6 mph - N/A   Overcast
6:49 AM 35.6 °F 30.7 °F 32.0 °F 87% 30.09 in 10.0 mi WNW 5.8 mph - N/A   Overcast
7:50 AM 35.6 °F - 32.0 °F 87% 30.10 in 15.0 mi Calm Calm - N/A   Overcast
8:50 AM 37.4 °F - 35.6 °F 93% 30.11 in 15.0 mi Calm Calm - N/A   Overcast
9:55 AM 39.2 °F 37.0 °F 37.4 °F 93% 30.12 in 15.0 mi NE 3.5 mph - N/A   Mostly Cloudy
10:51 AM 41.0 °F - 35.6 °F 81% 30.13 in 15.0 mi Calm Calm - N/A   Haze
11:59 AM 46.4 °F - 39.2 °F 76% 30.10 in 10.0 mi Calm Calm - N/A   Mostly Cloudy
12:59 PM 48.2 °F - 39.2 °F 71% 30.07 in 15.0 mi Calm Calm - N/A   Mostly Cloudy
1:55 PM 46.4 °F 42.4 °F 35.6 °F 66% 30.05 in 15.0 mi West 8.1 mph - N/A   Overcast
2:15 PM 51.8 °F - 37.4 °F 58% 30.04 in 15.0 mi NW 5.8 mph - N/A   Overcast
2:45 PM 51.8 °F - 35.6 °F 54% 30.04 in 15.0 mi SW 3.5 mph - N/A   Overcast
3:25 PM 44.6 °F 40.2 °F 35.6 °F 71% 30.06 in 5.0 mi SW 8.1 mph - N/A Rain Rain
3:52 PM 44.6 °F 39.2 °F 37.4 °F 76% 30.06 in 15.0 mi WSW 10.4 mph - N/A   Overcast
5:10 PM 44.6 °F - 39.2 °F 81% 30.07 in 10.0 mi Calm Calm - N/A   Mostly Cloudy
6:47 PM 42.8 °F - 39.2 °F 87% 30.06 in 10.0 mi Calm Calm - N/A   Overcast
7:53 PM 41.0 °F 35.2 °F 39.2 °F 93% 30.10 in 10.0 mi North 9.2 mph - N/A   Overcast
8:53 PM 42.8 °F 38.6 °F 37.4 °F 81% 30.11 in 10.0 mi West 6.9 mph - N/A   Overcast
9:15 PM 41.0 °F 35.2 °F 37.4 °F 87% 30.12 in 10.0 mi NNW 9.2 mph - N/A   Overcast
9:35 PM 42.8 °F 37.0 °F 37.4 °F 81% 30.12 in 10.0 mi NNW 10.4 mph - N/A   Overcast
9:55 PM 42.8 °F 37.5 °F 37.4 °F 81% 30.13 in 10.0 mi NNW 9.2 mph - N/A   Mostly Cloudy
10:15 PM 42.8 °F 37.0 °F 37.4 °F 81% 30.13 in 10.0 mi NNW 10.4 mph - N/A   Partly Cloudy
10:35 PM 42.8 °F 38.6 °F 35.6 °F 76% 30.13 in 10.0 mi NW 6.9 mph - N/A   Mostly Cloudy
10:55 PM 39.2 °F 32.5 °F 35.6 °F 87% 30.13 in 10.0 mi NNW 10.4 mph - N/A   Scattered Clouds
11:15 PM 41.0 °F 37.1 °F 35.6 °F 81% 30.13 in 10.0 mi NW 5.8 mph - N/A   Partly Cloudy
11:35 PM 39.2 °F 35.0 °F 35.6 °F 87% 30.14 in 10.0 mi WNW 5.8 mph - N/A   Scattered Clouds
11:55 PM 39.2 °F 33.6 °F 35.6 °F 87% 30.13 in 10.0 mi West 8.1 mph - N/A   Overcast